Location: Molveno
(46.1500°N, 10.9667°E)
Time: 01:34:52
(UTC+00:00)

Cosmos 1000 Rocket - Pass Details

Date: 05 July 2020
Orbit: 954 x 991 km, 82.9° (Epoch: 11 August)

Event Time Altitude Azimuth Distance (km) Brightness Sun altitude
Rises 23:43:44 0° 351° (N) 3,713 8.9 -21.0°
Reaches altitude 10° 23:46:16 10° 352° (N) 2,763 8.0 -20.9°
Maximum altitude 23:52:38 88° 79° (E) 999 4.5 -20.8°
Enters shadow 23:55:28 36° 171° (S) 1,518 5.0 -20.7°
